NKS561 KFLL-KIAH

Flight info

Callsign NKS561
Flight time 2h 27m
Altitude 32000
Route BNICE2 DOLIE Y280 LEV NNCEE2
Aircraft A320/M-SDE3FGHIRWY/LB1

Departure

Time 2026-05-03 22:44
Airport Fort Lauderdale Hollywood International Airport (KFLL)

Arrival

Time 2026-05-04 01:12
Airport George Bush Intercontinental Airport (KIAH)
Time Latitude Longitude Altitude Speed Heading
2026-05-03 21:43 26.06879 -80.14297 16 ft 0 kts
2026-05-03 21:43 26.06883 -80.14211 16 ft 0 kts
2026-05-03 22:06 26.06879 -80.14211 16 ft 3 kts
2026-05-03 22:07 26.06853 -80.14211 16 ft 4 kts
2026-05-03 22:07 26.06832 -80.14212 16 ft 4 kts 343°
2026-05-03 22:07 26.06817 -80.14197 16 ft 4 kts 272°
2026-05-03 22:07 26.06817 -80.14196 16 ft 0 kts 271°
2026-05-03 22:10 26.06817 -80.14204 16 ft 0 kts 271°
2026-05-03 22:11 26.06814 -80.14224 16 ft 7 kts 254°
2026-05-03 22:11 26.06770 -80.14326 15 ft 17 kts 260°
2026-05-03 22:11 26.06771 -80.14433 15 ft 7 kts 271°
2026-05-03 22:11 26.06771 -80.14436 15 ft 0 kts 271°
2026-05-03 22:12 26.06771 -80.14437 15 ft 0 kts 271°
2026-05-03 22:12 26.06771 -80.14438 15 ft 1 kts 271°
2026-05-03 22:12 26.06771 -80.14448 15 ft 0 kts 271°
2026-05-03 22:12 26.06771 -80.14451 15 ft 0 kts 271°
2026-05-03 22:13 26.06771 -80.14452 15 ft 0 kts 271°
2026-05-03 22:13 26.06771 -80.14453 15 ft 0 kts 271°
2026-05-03 22:13 26.06771 -80.14454 15 ft 0 kts 271°
2026-05-03 22:14 26.06771 -80.14460 15 ft 2 kts 271°
2026-05-03 22:14 26.06771 -80.14481 15 ft 0 kts 270°
2026-05-03 22:14 26.06771 -80.14493 15 ft 3 kts 268°
2026-05-03 22:15 26.06771 -80.14494 15 ft 0 kts 268°
2026-05-03 22:15 26.06770 -80.14506 15 ft 6 kts 264°
2026-05-03 22:15 26.06765 -80.14603 15 ft 17 kts 270°
2026-05-03 22:16 26.06766 -80.14762 15 ft 23 kts 271°
2026-05-03 22:16 26.06768 -80.14945 15 ft 22 kts 269°
2026-05-03 22:16 26.06767 -80.15055 16 ft 1 kts 271°
2026-05-03 22:16 26.06767 -80.15056 16 ft 0 kts 271°
2026-05-03 22:17 26.06767 -80.15058 16 ft 0 kts 271°
2026-05-03 22:17 26.06767 -80.15061 16 ft 1 kts 271°
2026-05-03 22:17 26.06754 -80.15116 18 ft 14 kts 220°
2026-05-03 22:17 26.06696 -80.15173 21 ft 10 kts 260°
2026-05-03 22:18 26.06696 -80.15259 18 ft 14 kts 271°
2026-05-03 22:18 26.06696 -80.15351 16 ft 0 kts 270°
2026-05-03 22:19 26.06696 -80.15353 16 ft 1 kts 270°
2026-05-03 22:19 26.06696 -80.15356 16 ft 0 kts 270°
2026-05-03 22:19 26.06696 -80.15360 16 ft 1 kts 270°
2026-05-03 22:19 26.06696 -80.15361 16 ft 0 kts 270°
2026-05-03 22:20 26.06696 -80.15371 16 ft 3 kts 270°
2026-05-03 22:20 26.06697 -80.15426 16 ft 10 kts 270°
2026-05-03 22:20 26.06697 -80.15487 16 ft 0 kts 270°
2026-05-03 22:20 26.06697 -80.15488 16 ft 0 kts 270°
2026-05-03 22:21 26.06697 -80.15490 16 ft 0 kts 270°
2026-05-03 22:22 26.06697 -80.15491 16 ft 1 kts 270°
2026-05-03 22:22 26.06697 -80.15495 16 ft 0 kts 270°
2026-05-03 22:23 26.06697 -80.15505 16 ft 2 kts 270°
2026-05-03 22:23 26.06697 -80.15519 16 ft 0 kts 270°
2026-05-03 22:24 26.06697 -80.15521 16 ft 0 kts 270°
2026-05-03 22:24 26.06697 -80.15522 16 ft 1 kts 270°
2026-05-03 22:24 26.06697 -80.15534 16 ft 2 kts 270°
2026-05-03 22:24 26.06697 -80.15558 16 ft 4 kts 270°
2026-05-03 22:25 26.06697 -80.15593 16 ft 4 kts 270°
2026-05-03 22:25 26.06697 -80.15602 16 ft 0 kts 270°
2026-05-03 22:27 26.06697 -80.15605 16 ft 1 kts 270°
2026-05-03 22:28 26.06698 -80.15640 16 ft 7 kts 270°
2026-05-03 22:28 26.06698 -80.15675 16 ft 0 kts 270°
2026-05-03 22:30 26.06698 -80.15700 18 ft 4 kts 270°
2026-05-03 22:30 26.06698 -80.15705 16 ft 0 kts 270°
2026-05-03 22:31 26.06698 -80.15706 16 ft 0 kts 270°
2026-05-03 22:31 26.06698 -80.15710 16 ft 0 kts 270°
2026-05-03 22:31 26.06698 -80.15711 16 ft 0 kts 270°
2026-05-03 22:32 26.06698 -80.15712 16 ft 1 kts 270°
2026-05-03 22:32 26.06698 -80.15738 16 ft 5 kts 270°
2026-05-03 22:32 26.06698 -80.15768 16 ft 0 kts 270°
2026-05-03 22:33 26.06698 -80.15771 16 ft 0 kts 270°
2026-05-03 22:34 26.06698 -80.15773 16 ft 0 kts 270°
2026-05-03 22:34 26.06698 -80.15774 16 ft 0 kts 270°
2026-05-03 22:41 26.06698 -80.15776 16 ft 1 kts 270°
2026-05-03 22:41 26.06697 -80.15791 16 ft 3 kts 260°
2026-05-03 22:41 26.06686 -80.15810 16 ft 1 kts 224°
2026-05-03 22:43 26.06675 -80.15817 17 ft 8 kts 207°
2026-05-03 22:43 26.06593 -80.15795 20 ft 12 kts 118°
2026-05-03 22:43 26.06589 -80.15750 19 ft 2 kts 92°
2026-05-03 22:44 26.06587 -80.15544 24 ft 64 kts 90°
2026-05-03 22:44 26.06585 -80.14806 22 ft 126 kts 90°
2026-05-03 22:44 26.06577 -80.13564 236 ft 158 kts 90°
2026-05-03 22:44 26.06582 -80.12369 871 ft 158 kts 86°
2026-05-03 22:45 26.06684 -80.11163 1490 ft 157 kts 71°
2026-05-03 22:45 26.07153 -80.10072 1957 ft 160 kts 54°
2026-05-03 22:45 26.07808 -80.08971 2102 ft 180 kts 55°
2026-05-03 22:45 26.08567 -80.07750 2228 ft 203 kts 45°
2026-05-03 22:46 26.09772 -80.06825 2418 ft 220 kts 19°
2026-05-03 22:46 26.11285 -80.06235 2685 ft 243 kts 18°
2026-05-03 22:46 26.12949 -80.05576 3085 ft 263 kts 18°
2026-05-03 22:46 26.14712 -80.04937 3811 ft 269 kts
2026-05-03 22:47 26.16572 -80.05011 4532 ft 270 kts 341°
2026-05-03 22:47 26.18359 -80.05677 5312 ft 272 kts 337°
2026-05-03 22:47 26.20163 -80.06411 6104 ft 274 kts 331°
2026-05-03 22:47 26.21761 -80.07546 6735 ft 274 kts 315°
2026-05-03 22:48 26.22981 -80.09150 7021 ft 272 kts 297°
2026-05-03 22:48 26.23729 -80.11070 7779 ft 271 kts 288°
2026-05-03 22:48 26.24419 -80.13058 8579 ft 272 kts 289°
2026-05-03 22:48 26.25124 -80.15037 9360 ft 273 kts 289°
2026-05-03 22:49 26.25614 -80.17058 10090 ft 273 kts 277°
2026-05-03 22:49 26.25824 -80.18489 10385 ft 283 kts 277°
2026-05-03 22:49 26.26150 -80.20778 10531 ft 306 kts 277°
2026-05-03 22:49 26.26499 -80.23241 10651 ft 328 kts 277°
2026-05-03 22:50 26.26859 -80.25774 10892 ft 343 kts 277°
2026-05-03 22:50 26.27238 -80.28431 11447 ft 348 kts 277°
2026-05-03 22:50 26.27617 -80.31099 12072 ft 351 kts 277°
2026-05-03 22:50 26.28002 -80.33787 12673 ft 353 kts 277°
2026-05-03 22:51 26.28393 -80.36542 13290 ft 356 kts 277°
2026-05-03 22:51 26.28781 -80.39274 13889 ft 359 kts 277°
2026-05-03 22:51 26.29179 -80.42066 14405 ft 360 kts 277°
2026-05-03 22:51 26.29570 -80.44825 14910 ft 362 kts 277°
2026-05-03 22:52 26.29962 -80.47602 15409 ft 364 kts 277°
2026-05-03 22:52 26.30355 -80.50392 15898 ft 365 kts 276°
2026-05-03 22:52 26.30751 -80.53227 16399 ft 367 kts 276°
2026-05-03 22:52 26.31142 -80.56018 16918 ft 368 kts 276°
2026-05-03 22:53 26.31539 -80.58840 17447 ft 369 kts 276°
2026-05-03 22:53 26.31938 -80.61671 17966 ft 371 kts 276°
2026-05-03 22:53 26.32338 -80.64518 18463 ft 374 kts 276°
2026-05-03 22:53 26.32740 -80.67395 18924 ft 375 kts 276°
2026-05-03 22:54 26.33142 -80.70276 19362 ft 377 kts 276°
2026-05-03 22:54 26.33545 -80.73177 19800 ft 380 kts 275°
2026-05-03 22:54 26.33950 -80.76093 20285 ft 382 kts 275°
2026-05-03 22:54 26.34357 -80.79026 20745 ft 383 kts 275°
2026-05-03 22:55 26.34687 -80.81392 21104 ft 383 kts 275°
2026-05-03 22:55 26.36481 -80.91290 22428 ft 396 kts 288°
2026-05-03 22:56 26.37550 -80.93517 22690 ft 406 kts 297°
2026-05-03 22:56 26.39378 -80.95997 23038 ft 419 kts 309°
2026-05-03 22:56 26.41523 -80.98236 23426 ft 424 kts 310°
2026-05-03 22:56 26.43680 -81.00482 23783 ft 425 kts 310°
2026-05-03 22:57 26.45845 -81.02746 24071 ft 427 kts 309°
2026-05-03 22:57 26.48010 -81.05023 24377 ft 428 kts 309°
2026-05-03 22:57 26.50176 -81.07308 24666 ft 430 kts 309°
2026-05-03 22:57 26.52354 -81.09604 24959 ft 431 kts 309°
2026-05-03 22:58 26.54539 -81.11906 25248 ft 433 kts 309°
2026-05-03 22:58 26.56703 -81.14187 25543 ft 434 kts 309°
2026-05-03 22:58 26.58903 -81.16506 25835 ft 436 kts 309°
2026-05-03 22:58 26.61112 -81.18837 26207 ft 436 kts 309°
2026-05-03 22:59 26.63311 -81.21157 26649 ft 434 kts 309°
2026-05-03 22:59 26.65502 -81.23473 27104 ft 432 kts 309°
2026-05-03 23:00 26.74122 -81.32645 29093 ft 424 kts 309°
2026-05-03 23:00 26.76253 -81.34911 29585 ft 422 kts 309°
2026-05-03 23:00 26.78378 -81.37172 30058 ft 420 kts 308°
2026-05-03 23:01 26.80490 -81.39424 30468 ft 419 kts 308°
2026-05-03 23:01 26.82568 -81.41641 30871 ft 417 kts 308°
2026-05-03 23:01 26.84659 -81.43877 31280 ft 415 kts 307°
2026-05-03 23:01 26.86741 -81.46102 31689 ft 413 kts 307°
2026-05-03 23:02 26.88820 -81.48322 31991 ft 412 kts 307°
2026-05-03 23:02 26.93006 -81.52808 32083 ft 424 kts 306°
2026-05-03 23:03 26.97307 -81.57421 32072 ft 430 kts 307°
2026-05-03 23:03 27.01647 -81.62053 32071 ft 431 kts 307°
2026-05-03 23:04 27.05954 -81.66657 32077 ft 430 kts 307°
2026-05-03 23:04 27.10274 -81.71296 32072 ft 429 kts 307°
2026-05-03 23:05 27.14586 -81.75933 32069 ft 429 kts 307°
2026-05-03 23:05 27.18896 -81.80571 32063 ft 429 kts 307°
2026-05-03 23:06 27.23197 -81.85215 32061 ft 429 kts 307°
2026-05-03 23:06 27.27184 -81.90083 32097 ft 413 kts 295°
2026-05-03 23:06 27.28557 -81.92866 32090 ft 402 kts 285°
2026-05-03 23:07 27.29461 -81.95803 32085 ft 394 kts 277°
2026-05-03 23:07 27.30586 -82.01798 32071 ft 392 kts 276°
2026-05-03 23:08 27.31709 -82.07803 32067 ft 393 kts 276°
2026-05-03 23:08 27.32839 -82.13812 32060 ft 393 kts 276°
2026-05-03 23:09 27.33960 -82.19833 32057 ft 394 kts 276°
2026-05-03 23:09 27.35075 -82.25856 32059 ft 393 kts 276°
2026-05-03 23:10 27.36202 -82.31922 32063 ft 393 kts 276°
2026-05-03 23:10 27.37319 -82.37947 32064 ft 393 kts 276°
2026-05-03 23:11 27.38430 -82.43958 32089 ft 392 kts 276°
2026-05-03 23:11 27.39534 -82.49965 32085 ft 392 kts 276°
2026-05-03 23:12 27.40624 -82.55933 32082 ft 391 kts 276°
2026-05-03 23:12 27.41738 -82.61961 32083 ft 391 kts 276°
2026-05-03 23:13 27.42863 -82.67914 32079 ft 391 kts 276°
2026-05-03 23:13 27.43984 -82.73902 32075 ft 391 kts 276°
2026-05-03 23:14 27.45093 -82.79888 32100 ft 390 kts 276°
2026-05-03 23:14 27.46204 -82.85870 32095 ft 389 kts 276°
2026-05-03 23:15 27.47310 -82.91831 32089 ft 389 kts 276°
2026-05-03 23:15 27.48414 -82.97825 32086 ft 388 kts 276°
2026-05-03 23:16 27.49499 -83.03770 32086 ft 387 kts 276°
2026-05-03 23:16 27.50586 -83.09671 32082 ft 387 kts 276°
2026-05-03 23:17 27.51679 -83.15606 32078 ft 387 kts 276°
2026-05-03 23:17 27.52767 -83.21582 32103 ft 386 kts 276°
2026-05-03 23:18 27.53842 -83.27492 32084 ft 385 kts 276°
2026-05-03 23:18 27.54907 -83.33354 32097 ft 384 kts 276°
2026-05-03 23:19 27.55976 -83.39241 32087 ft 383 kts 276°
2026-05-03 23:19 27.57037 -83.45126 32095 ft 383 kts 276°
2026-05-03 23:20 27.58097 -83.51006 32096 ft 383 kts 276°
2026-05-03 23:20 27.59147 -83.56850 32102 ft 383 kts 276°
2026-05-03 23:21 27.60204 -83.62737 32109 ft 383 kts 276°
2026-05-03 23:21 27.61255 -83.68597 32111 ft 381 kts 276°
2026-05-03 23:22 27.62819 -83.77389 32105 ft 381 kts 276°
2026-05-03 23:22 27.63854 -83.83212 32103 ft 382 kts 276°
2026-05-03 23:23 27.64902 -83.89079 32097 ft 381 kts 276°
2026-05-03 23:23 27.65934 -83.94936 32116 ft 381 kts 276°
2026-05-03 23:24 27.66965 -84.00796 32116 ft 381 kts 276°
2026-05-03 23:24 27.68000 -84.06653 32116 ft 381 kts 276°
2026-05-03 23:25 27.69025 -84.12468 32115 ft 380 kts 276°
2026-05-03 23:25 27.70046 -84.18313 32112 ft 380 kts 276°
2026-05-03 23:26 27.71061 -84.24159 32111 ft 380 kts 276°
2026-05-03 23:26 27.72087 -84.30011 32121 ft 379 kts 276°
2026-05-03 23:27 27.73099 -84.35822 32113 ft 380 kts 276°
2026-05-03 23:27 27.74113 -84.41673 32118 ft 380 kts 276°
2026-05-03 23:28 27.75125 -84.47517 32120 ft 379 kts 276°
2026-05-03 23:28 27.76136 -84.53372 32123 ft 380 kts 276°
2026-05-03 23:29 27.77139 -84.59215 32121 ft 379 kts 276°
2026-05-03 23:29 27.78133 -84.65021 32118 ft 379 kts 276°
2026-05-03 23:30 27.79127 -84.70859 32142 ft 379 kts 276°
2026-05-03 23:30 27.80128 -84.76699 32137 ft 379 kts 276°
2026-05-03 23:31 27.81118 -84.82537 32127 ft 378 kts 276°
2026-05-03 23:31 27.82103 -84.88338 32121 ft 379 kts 276°
2026-05-03 23:32 27.83094 -84.94175 32122 ft 379 kts 276°
2026-05-03 23:32 27.84079 -85.00022 32126 ft 379 kts 276°
2026-05-03 23:33 27.85061 -85.05864 32126 ft 379 kts 276°
2026-05-03 23:33 27.86047 -85.11672 32119 ft 379 kts 276°
2026-05-03 23:34 27.87030 -85.17517 32128 ft 379 kts 276°
2026-05-03 23:34 27.88003 -85.23361 32119 ft 378 kts 276°
2026-05-03 23:35 27.89409 -85.29089 32108 ft 383 kts 283°
2026-05-03 23:35 27.91137 -85.34767 32105 ft 383 kts 283°
2026-05-03 23:36 27.92871 -85.40476 32112 ft 383 kts 283°
2026-05-03 23:36 27.94596 -85.46168 32109 ft 383 kts 283°
2026-05-03 23:37 27.96313 -85.51874 32120 ft 383 kts 283°
2026-05-03 23:37 27.98021 -85.57547 32114 ft 383 kts 283°
2026-05-03 23:38 27.99733 -85.63251 32148 ft 383 kts 283°
2026-05-03 23:38 28.01448 -85.68962 32132 ft 384 kts 284°
2026-05-03 23:39 28.03167 -85.74687 32127 ft 384 kts 284°
2026-05-03 23:39 28.04864 -85.80382 32122 ft 385 kts 283°
2026-05-03 23:40 28.06580 -85.86119 32122 ft 385 kts 284°
2026-05-03 23:40 28.08297 -85.91863 32125 ft 385 kts 284°
2026-05-03 23:41 28.10012 -85.97603 32123 ft 385 kts 283°
2026-05-03 23:41 28.11718 -86.03348 32122 ft 385 kts 283°
2026-05-03 23:42 28.13415 -86.09102 32123 ft 385 kts 283°
2026-05-03 23:42 28.15115 -86.14848 32123 ft 385 kts 283°
2026-05-03 23:43 28.16805 -86.20560 32128 ft 385 kts 284°
2026-05-03 23:43 28.18499 -86.26312 32130 ft 385 kts 284°
2026-05-03 23:44 28.20195 -86.32068 32127 ft 385 kts 284°
2026-05-03 23:44 28.21891 -86.37818 32130 ft 385 kts 284°
2026-05-03 23:45 28.23592 -86.43566 32128 ft 384 kts 284°
2026-05-03 23:45 28.25274 -86.49314 32131 ft 384 kts 284°
2026-05-03 23:46 28.26948 -86.55071 32130 ft 384 kts 284°
2026-05-03 23:46 28.28344 -86.59853 32128 ft 384 kts 284°
2026-05-03 23:47 28.30295 -86.66531 32135 ft 384 kts 284°
2026-05-03 23:47 28.31975 -86.72291 32137 ft 384 kts 284°
2026-05-03 23:48 28.33373 -86.77071 32179 ft 384 kts 284°
2026-05-03 23:48 28.35063 -86.82829 32146 ft 384 kts 284°
2026-05-03 23:49 28.37015 -86.89519 32132 ft 384 kts 284°
2026-05-03 23:49 28.38421 -86.94342 32133 ft 384 kts 284°
2026-05-03 23:50 28.40099 -87.00111 32146 ft 385 kts 285°
2026-05-03 23:50 28.41776 -87.05883 32144 ft 385 kts 285°
2026-05-03 23:51 28.43467 -87.11690 32138 ft 385 kts 285°
2026-05-03 23:51 28.45143 -87.17458 32147 ft 384 kts 285°
2026-05-03 23:52 28.46809 -87.23231 32137 ft 384 kts 285°
2026-05-03 23:52 28.48469 -87.29008 32136 ft 384 kts 285°
2026-05-03 23:53 28.50136 -87.34780 32132 ft 384 kts 285°
2026-05-03 23:53 28.51805 -87.40554 32148 ft 384 kts 285°
2026-05-03 23:54 28.53463 -87.46327 32143 ft 384 kts 285°
2026-05-03 23:54 28.55104 -87.52056 32131 ft 384 kts 285°
2026-05-03 23:55 28.56757 -87.57829 32146 ft 384 kts 285°
2026-05-03 23:55 28.58402 -87.63600 32131 ft 384 kts 285°
2026-05-03 23:56 28.60047 -87.69370 32132 ft 383 kts 285°
2026-05-03 23:56 28.61683 -87.75106 32136 ft 383 kts 286°
2026-05-03 23:57 28.63323 -87.80871 32145 ft 383 kts 285°
2026-05-03 23:57 28.64955 -87.86637 32196 ft 383 kts 286°
2026-05-03 23:58 28.66588 -87.92405 32147 ft 383 kts 286°
2026-05-03 23:58 28.68217 -87.98181 32138 ft 384 kts 286°
2026-05-03 23:59 28.69834 -88.03936 32136 ft 384 kts 286°
2026-05-03 23:59 28.71465 -88.09731 32134 ft 384 kts 286°
2026-05-04 00:00 28.73096 -88.15533 32141 ft 384 kts 286°
2026-05-04 00:00 28.74723 -88.21327 32146 ft 384 kts 286°
2026-05-04 00:01 28.76341 -88.27124 32148 ft 384 kts 286°
2026-05-04 00:01 28.77961 -88.32922 32152 ft 384 kts 286°
2026-05-04 00:02 28.79582 -88.38724 32153 ft 384 kts 286°
2026-05-04 00:02 28.81198 -88.44522 32153 ft 384 kts 286°
2026-05-04 00:03 28.82812 -88.50325 32140 ft 383 kts 287°
2026-05-04 00:03 28.84410 -88.56083 32150 ft 383 kts 287°
2026-05-04 00:04 28.86007 -88.61874 32155 ft 382 kts 287°
2026-05-04 00:04 28.87599 -88.67660 32154 ft 382 kts 287°
2026-05-04 00:05 28.89108 -88.73472 32150 ft 382 kts 284°
2026-05-04 00:05 28.90333 -88.79240 32152 ft 381 kts 283°
2026-05-04 00:06 28.91516 -88.85133 32150 ft 382 kts 283°
2026-05-04 00:06 28.92737 -88.91030 32152 ft 381 kts 284°
2026-05-04 00:07 28.93988 -88.96902 32154 ft 380 kts 284°
2026-05-04 00:07 28.95235 -89.02768 32160 ft 380 kts 284°
2026-05-04 00:08 28.96473 -89.08604 32160 ft 381 kts 284°
2026-05-04 00:08 28.97716 -89.14493 32148 ft 383 kts 284°
2026-05-04 00:09 28.98960 -89.20445 32147 ft 383 kts 284°
2026-05-04 00:09 29.00199 -89.26367 32127 ft 383 kts 284°
2026-05-04 00:10 29.01447 -89.32282 32142 ft 383 kts 285°
2026-05-04 00:10 29.02680 -89.38156 32152 ft 383 kts 284°
2026-05-04 00:11 29.03907 -89.44065 32155 ft 382 kts 284°
2026-05-04 00:11 29.05131 -89.49976 32155 ft 382 kts 284°
2026-05-04 00:12 29.06345 -89.55832 32150 ft 381 kts 284°
2026-05-04 00:12 29.07561 -89.61729 32148 ft 381 kts 284°
2026-05-04 00:13 29.08781 -89.67618 32147 ft 381 kts 284°
2026-05-04 00:13 29.09995 -89.73509 32144 ft 381 kts 284°
2026-05-04 00:14 29.11211 -89.79408 32141 ft 381 kts 284°
2026-05-04 00:14 29.12413 -89.85271 32145 ft 382 kts 284°
2026-05-04 00:15 29.13618 -89.91181 32146 ft 382 kts 284°
2026-05-04 00:15 29.14829 -89.97136 32149 ft 382 kts 284°
2026-05-04 00:16 29.16027 -90.03014 32141 ft 381 kts 285°
2026-05-04 00:16 29.17224 -90.08918 32154 ft 381 kts 285°
2026-05-04 00:17 29.18231 -90.14860 32160 ft 381 kts 281°
2026-05-04 00:17 29.18948 -90.20867 32162 ft 381 kts 280°
2026-05-04 00:18 29.19634 -90.26836 32159 ft 381 kts 281°
2026-05-04 00:18 29.20378 -90.32829 32173 ft 380 kts 281°
2026-05-04 00:19 29.21142 -90.38815 32139 ft 380 kts 281°
2026-05-04 00:19 29.21899 -90.44785 32155 ft 378 kts 282°
2026-05-04 00:20 29.22657 -90.50777 32163 ft 378 kts 282°
2026-05-04 00:20 29.23402 -90.56722 32163 ft 377 kts 282°
2026-05-04 00:21 29.24139 -90.62619 32163 ft 376 kts 282°
2026-05-04 00:21 29.24872 -90.68553 32192 ft 377 kts 281°
2026-05-04 00:22 29.25608 -90.74510 32147 ft 378 kts 281°
2026-05-04 00:22 29.26349 -90.80477 32134 ft 379 kts 282°
2026-05-04 00:23 29.27082 -90.86401 32140 ft 378 kts 282°
2026-05-04 00:23 29.27813 -90.92368 32147 ft 378 kts 282°
2026-05-04 00:24 29.28537 -90.98331 32149 ft 378 kts 282°
2026-05-04 00:24 29.29259 -91.04302 32150 ft 378 kts 282°
2026-05-04 00:25 29.29977 -91.10219 32150 ft 378 kts 282°
2026-05-04 00:25 29.30706 -91.16180 32122 ft 377 kts 282°
2026-05-04 00:26 29.31420 -91.22127 32151 ft 376 kts 282°
2026-05-04 00:26 29.32123 -91.28051 32162 ft 375 kts 282°
2026-05-04 00:27 29.32827 -91.33959 32166 ft 374 kts 282°
2026-05-04 00:27 29.33534 -91.39861 32165 ft 374 kts 282°
2026-05-04 00:28 29.34228 -91.45721 32166 ft 373 kts 282°
2026-05-04 00:28 29.34916 -91.51613 32161 ft 373 kts 282°
2026-05-04 00:29 29.35610 -91.57500 32145 ft 372 kts 282°
2026-05-04 00:29 29.36301 -91.63379 32151 ft 372 kts 282°
2026-05-04 00:30 29.36990 -91.69211 32145 ft 372 kts 282°
2026-05-04 00:30 29.37666 -91.75086 32147 ft 372 kts 282°
2026-05-04 00:31 29.38339 -91.80960 32147 ft 372 kts 282°
2026-05-04 00:31 29.39018 -91.86836 32143 ft 371 kts 282°
2026-05-04 00:32 29.39698 -91.92706 32116 ft 372 kts 282°
2026-05-04 00:32 29.40364 -91.98550 32123 ft 372 kts 282°
2026-05-04 00:33 29.41367 -92.07398 32128 ft 373 kts 282°
2026-05-04 00:34 29.42037 -92.13302 32137 ft 374 kts 282°
2026-05-04 00:34 29.42703 -92.19215 32141 ft 373 kts 282°
2026-05-04 00:35 29.43359 -92.25080 32148 ft 374 kts 282°
2026-05-04 00:35 29.44019 -92.30987 32122 ft 374 kts 281°
2026-05-04 00:36 29.44681 -92.36907 32123 ft 375 kts 281°
2026-05-04 00:36 29.45341 -92.42849 32131 ft 376 kts 281°
2026-05-04 00:37 29.45912 -92.48822 32135 ft 378 kts 278°
2026-05-04 00:37 29.46187 -92.54897 32139 ft 379 kts 277°
2026-05-04 00:38 29.46399 -92.60955 32144 ft 380 kts 277°
2026-05-04 00:38 29.46650 -92.67008 32150 ft 380 kts 278°
2026-05-04 00:39 29.46930 -92.73067 32141 ft 380 kts 278°
2026-05-04 00:39 29.47217 -92.79120 32146 ft 380 kts 277°
2026-05-04 00:40 29.47492 -92.85175 32149 ft 380 kts 277°
2026-05-04 00:40 29.47758 -92.91193 32152 ft 380 kts 277°
2026-05-04 00:41 29.48025 -92.97248 32154 ft 380 kts 277°
2026-05-04 00:41 29.48289 -93.03307 32152 ft 380 kts 277°
2026-05-04 00:42 29.48550 -93.09366 32140 ft 380 kts 277°
2026-05-04 00:42 29.48800 -93.15424 32146 ft 380 kts 277°
2026-05-04 00:43 29.49040 -93.21484 32149 ft 379 kts 277°
2026-05-04 00:43 29.49277 -93.27541 31860 ft 380 kts 277°
2026-05-04 00:43 29.49395 -93.30536 31619 ft 381 kts 277°
2026-05-04 00:44 29.49514 -93.33572 31381 ft 381 kts 277°
2026-05-04 00:44 29.49632 -93.36613 31163 ft 382 kts 277°
2026-05-04 00:44 29.49749 -93.39664 30936 ft 385 kts 277°
2026-05-04 00:44 29.49867 -93.42746 30700 ft 387 kts 276°
2026-05-04 00:45 29.49983 -93.45839 30467 ft 389 kts 276°
2026-05-04 00:45 29.50099 -93.48943 30229 ft 390 kts 276°
2026-05-04 00:45 29.50214 -93.52053 29962 ft 391 kts 276°
2026-05-04 00:45 29.50330 -93.55182 29688 ft 393 kts 276°
2026-05-04 00:46 29.50447 -93.58318 29419 ft 394 kts 276°
2026-05-04 00:46 29.50563 -93.61423 29153 ft 396 kts 276°
2026-05-04 00:46 29.50677 -93.64581 28887 ft 397 kts 276°
2026-05-04 00:46 29.50791 -93.67752 28624 ft 398 kts 276°
2026-05-04 00:47 29.50906 -93.70941 28362 ft 400 kts 276°
2026-05-04 00:47 29.51019 -93.74136 28104 ft 402 kts 276°
2026-05-04 00:47 29.51132 -93.77340 27756 ft 402 kts 276°
2026-05-04 00:47 29.51245 -93.80561 26777 ft 404 kts 276°
2026-05-04 00:48 29.51357 -93.83760 26160 ft 398 kts 275°
2026-05-04 00:48 29.51464 -93.86882 25924 ft 383 kts 275°
2026-05-04 00:48 29.51562 -93.89876 25813 ft 368 kts 276°
2026-05-04 00:48 29.51659 -93.92758 25523 ft 358 kts 276°
2026-05-04 00:49 29.51755 -93.95582 25271 ft 353 kts 276°
2026-05-04 00:49 29.51857 -93.98398 24989 ft 353 kts 276°
2026-05-04 00:49 29.51963 -94.01239 24514 ft 351 kts 276°
2026-05-04 00:49 29.52033 -94.03127 24174 ft 351 kts 276°
2026-05-04 00:50 29.52133 -94.05924 23657 ft 351 kts 276°
2026-05-04 00:50 29.52261 -94.09623 22935 ft 349 kts 276°
2026-05-04 00:50 29.52354 -94.12399 22438 ft 348 kts 275°
2026-05-04 00:50 29.52444 -94.15167 21943 ft 346 kts 275°
2026-05-04 00:51 29.52535 -94.17921 21445 ft 345 kts 276°
2026-05-04 00:51 29.52595 -94.19742 21102 ft 344 kts 275°
2026-05-04 00:51 29.52685 -94.22489 20615 ft 344 kts 275°
2026-05-04 00:51 29.52772 -94.25230 20127 ft 343 kts 275°
2026-05-04 00:52 29.52900 -94.27960 19642 ft 341 kts 280°
2026-05-04 00:52 29.53700 -94.31403 18998 ft 336 kts 295°
2026-05-04 00:52 29.54724 -94.33809 18511 ft 335 kts 297°
2026-05-04 00:52 29.55427 -94.35431 18146 ft 335 kts 297°
2026-05-04 00:53 29.56459 -94.37832 17513 ft 336 kts 297°
2026-05-04 00:53 29.57489 -94.40231 17010 ft 334 kts 297°
2026-05-04 00:53 29.58512 -94.42619 16543 ft 333 kts 297°
2026-05-04 00:53 29.59531 -94.45005 16066 ft 332 kts 296°
2026-05-04 00:54 29.60533 -94.47353 15590 ft 332 kts 296°
2026-05-04 00:54 29.61547 -94.49727 15112 ft 331 kts 296°
2026-05-04 00:54 29.62560 -94.52095 14744 ft 330 kts 296°
2026-05-04 00:54 29.63591 -94.54498 14439 ft 331 kts 296°
2026-05-04 00:55 29.64609 -94.56875 14119 ft 332 kts 296°
2026-05-04 00:55 29.65631 -94.59256 13776 ft 332 kts 296°
2026-05-04 00:55 29.66653 -94.61636 13447 ft 332 kts 296°
2026-05-04 00:55 29.67673 -94.64021 13133 ft 331 kts 296°
2026-05-04 00:56 29.68679 -94.66383 12809 ft 329 kts 296°
2026-05-04 00:56 29.69687 -94.68741 12500 ft 328 kts 296°
2026-05-04 00:56 29.70706 -94.71126 12175 ft 327 kts 296°
2026-05-04 00:56 29.71706 -94.73473 11802 ft 327 kts 296°
2026-05-04 00:57 29.72716 -94.75839 11208 ft 330 kts 296°
2026-05-04 00:57 29.73721 -94.78202 10743 ft 329 kts 296°
2026-05-04 00:57 29.74710 -94.80525 10585 ft 318 kts 295°
2026-05-04 00:57 29.75663 -94.82769 10472 ft 306 kts 295°
2026-05-04 00:58 29.76583 -94.84936 10327 ft 297 kts 295°
2026-05-04 00:58 29.77484 -94.87059 10098 ft 293 kts 295°
2026-05-04 00:58 29.78373 -94.89158 9792 ft 291 kts 295°
2026-05-04 00:58 29.79254 -94.91231 9511 ft 289 kts 295°
2026-05-04 00:59 29.80122 -94.93271 9250 ft 287 kts 295°
2026-05-04 00:59 29.80924 -94.95159 9002 ft 286 kts 295°
2026-05-04 00:59 29.81804 -94.97230 8730 ft 283 kts 296°
2026-05-04 00:59 29.82664 -94.99258 8467 ft 281 kts 296°
2026-05-04 01:00 29.83505 -95.01246 8209 ft 279 kts 296°
2026-05-04 01:00 29.84362 -95.03274 7944 ft 278 kts 296°
2026-05-04 01:00 29.85194 -95.05248 7684 ft 277 kts 296°
2026-05-04 01:00 29.86033 -95.07241 7420 ft 276 kts 296°
2026-05-04 01:01 29.86872 -95.09231 7165 ft 276 kts 296°
2026-05-04 01:01 29.87582 -95.11279 6902 ft 276 kts 285°
2026-05-04 01:01 29.88016 -95.13428 6648 ft 275 kts 283°
2026-05-04 01:01 29.88448 -95.15606 6385 ft 275 kts 283°
2026-05-04 01:02 29.88879 -95.17766 6125 ft 273 kts 283°
2026-05-04 01:02 29.89156 -95.19904 5971 ft 273 kts 271°
2026-05-04 01:02 29.89165 -95.22066 5972 ft 274 kts 271°
2026-05-04 01:02 29.89171 -95.24263 5975 ft 275 kts 271°
2026-05-04 01:03 29.89177 -95.26461 5974 ft 275 kts 271°
2026-05-04 01:03 29.89184 -95.28658 5975 ft 275 kts 271°
2026-05-04 01:03 29.89191 -95.30867 5973 ft 275 kts 271°
2026-05-04 01:03 29.89197 -95.33069 5974 ft 275 kts 271°
2026-05-04 01:04 29.89203 -95.35261 5974 ft 272 kts 270°
2026-05-04 01:04 29.89207 -95.37397 5971 ft 261 kts 270°
2026-05-04 01:04 29.89220 -95.39462 5970 ft 252 kts 270°
2026-05-04 01:04 29.89234 -95.41423 5972 ft 238 kts 270°
2026-05-04 01:05 29.89235 -95.43246 5971 ft 224 kts 270°
2026-05-04 01:05 29.89221 -95.45031 5971 ft 209 kts 269°
2026-05-04 01:05 29.89201 -95.46640 5992 ft 197 kts 269°
2026-05-04 01:05 29.89174 -95.48206 5909 ft 193 kts 269°
2026-05-04 01:06 29.89149 -95.49727 5555 ft 192 kts 270°
2026-05-04 01:06 29.89470 -95.51225 5089 ft 199 kts 300°
2026-05-04 01:06 29.90472 -95.52297 4725 ft 200 kts 335°
2026-05-04 01:06 29.91839 -95.52635 4434 ft 197 kts 354°
2026-05-04 01:07 29.93198 -95.52806 4161 ft 197 kts 353°
2026-05-04 01:07 29.94565 -95.52979 3904 ft 198 kts 354°
2026-05-04 01:07 29.95938 -95.53024 3644 ft 197 kts
2026-05-04 01:07 29.97241 -95.52559 3340 ft 198 kts 29°
2026-05-04 01:08 29.98343 -95.51595 2852 ft 201 kts 51°
2026-05-04 01:08 29.99053 -95.50269 2578 ft 194 kts 72°
2026-05-04 01:08 29.99319 -95.48788 2333 ft 184 kts 92°
2026-05-04 01:08 29.99323 -95.47396 2127 ft 162 kts 94°
2026-05-04 01:09 29.99327 -95.46161 1902 ft 149 kts 95°
2026-05-04 01:09 29.99329 -95.44995 1714 ft 143 kts 95°
2026-05-04 01:09 29.99330 -95.43857 1520 ft 142 kts 95°
2026-05-04 01:09 29.99332 -95.42719 1344 ft 142 kts 95°
2026-05-04 01:10 29.99333 -95.41587 1155 ft 141 kts 95°
2026-05-04 01:10 29.99335 -95.40460 980 ft 140 kts 95°
2026-05-04 01:10 29.99337 -95.39340 791 ft 140 kts 94°
2026-05-04 01:10 29.99338 -95.38225 606 ft 138 kts 94°
2026-05-04 01:11 29.99340 -95.37118 422 ft 138 kts 93°
2026-05-04 01:11 29.99341 -95.36016 245 ft 137 kts 93°
2026-05-04 01:11 29.99340 -95.34938 117 ft 126 kts 91°
2026-05-04 01:11 29.99341 -95.34119 105 ft 64 kts 90°
2026-05-04 01:12 29.99342 -95.33847 105 ft 26 kts 90°
2026-05-04 01:12 29.99338 -95.33642 108 ft 26 kts 92°
2026-05-04 01:12 29.99330 -95.33408 108 ft 29 kts 94°
2026-05-04 01:12 29.99275 -95.33216 106 ft 21 kts 118°
2026-05-04 01:13 29.99213 -95.33136 107 ft 7 kts 166°
2026-05-04 01:13 29.99201 -95.33138 107 ft 0 kts 189°
2026-05-04 01:14 29.99198 -95.33138 105 ft 0 kts 189°
2026-05-04 01:14 29.99195 -95.33140 107 ft 0 kts 200°
2026-05-04 01:15 29.99189 -95.33136 107 ft 5 kts 163°
2026-05-04 01:15 29.99183 -95.33093 107 ft 7 kts 92°
2026-05-04 01:16 29.99162 -95.33037 107 ft 8 kts 139°
2026-05-04 01:16 29.99099 -95.33027 107 ft 11 kts 180°
2026-05-04 01:16 29.99015 -95.33026 107 ft 13 kts 179°
2026-05-04 01:16 29.98913 -95.33024 107 ft 15 kts 179°
2026-05-04 01:17 29.98815 -95.33026 107 ft 13 kts 181°
2026-05-04 01:17 29.98714 -95.33027 107 ft 16 kts 179°
2026-05-04 01:17 29.98603 -95.33026 107 ft 17 kts 180°
2026-05-04 01:17 29.98475 -95.33025 107 ft 20 kts 180°
2026-05-04 01:18 29.98343 -95.33027 107 ft 16 kts 181°
2026-05-04 01:18 29.98300 -95.33096 107 ft 13 kts 273°
2026-05-04 01:18 29.98302 -95.33208 107 ft 15 kts 271°
2026-05-04 01:18 29.98304 -95.33322 107 ft 13 kts 271°
2026-05-04 01:19 29.98335 -95.33391 107 ft 8 kts 338°
2026-05-04 01:19 29.98397 -95.33401 107 ft 8 kts 354°
2026-05-04 01:19 29.98444 -95.33409 107 ft 6 kts 323°
2026-05-04 01:19 29.98468 -95.33445 107 ft 7 kts 300°
2026-05-04 01:20 29.98478 -95.33465 107 ft 2 kts 300°
2026-05-04 01:20 29.98481 -95.33470 107 ft 0 kts 300°